Theta_e
312 313 314 313 314 315 314 313 312 312 312 312 311 311 312 311 310 312 314 314 313 311 311 313 313 314 314 315 313 313 323 329 329 330 330 330 331 332 332 331 331 327 323 323 324 324 323 323 322 322 324 326 325 324 323 323 321 322 322 320 318 317 316 316 316 318 319 319 319 319 319 317 317 318 317 316 317 318 318 320 320 318 317 318 318 319
312 313 315 314 314 314 314 313 312 311 311 311 311 311 313 313 313 314 314 315 314 312 312 313 313 315 315 317 316 314 323 329 328 330 330 330 331 331 332 331 331 328 325 324 325 325 324 322 322 322 323 325 325 324 324 323 322 323 324 323 322 319 318 317 316 316 318 318 318 319 318 317 316 317 318 318 319 320 321 323 324 321 319 319 320 321
314 315 315 313 313 312 313 313 312 312 312 312 312 313 314 315 315 315 316 315 315 315 316 315 313 314 316 319 319 315 320 327 328 330 330 330 330 330 331 331 331 331 327 326 327 326 324 323 322 322 323 324 324 323 323 323 322 322 322 322 322 321 320 319 318 317 317 317 317 318 318 318 317 318 318 319 318 318 318 318 318 319 319 320 319 320
315 316 314 313 312 312 313 312 313 315 316 315 315 314 315 317 314 314 315 314 315 316 317 317 315 316 318 320 320 314 315 322 326 329 330 329 328 329 329 328 329 329 327 327 329 328 326 324 323 322 323 324 324 323 322 321 320 317 317 318 319 320 320 320 320 319 318 318 318 318 317 316 314 313 312 311 310 310 310 309 310 311 311 311 312 313
315 316 315 313 313 313 313 314 317 319 320 320 318 314 315 317 313 313 315 313 314 316 318 317 313 318 322 319 319 316 313 316 320 326 329 328 327 328 329 327 326 325 323 325 329 328 326 323 322 323 324 323 324 323 321 318 315 314 313 314 315 317 316 316 317 316 316 316 314 313 311 309 307 307 306 306 306 306 305 306 306 306 306 306 307 308
316 316 315 315 316 315 314 315 318 319 319 320 320 317 315 315 315 315 315 314 314 316 320 317 312 322 332 322 319 319 315 315 316 320 326 328 328 328 329 329 329 326 322 323 326 327 326 323 323 325 326 325 324 324 320 315 313 313 312 312 313 313 311 311 311 310 310 309 308 307 307 306 306 306 306 305 305 305 305 305 305 305 305 304 305 305
318 316 315 316 317 317 317 316 316 317 317 316 317 317 315 316 318 317 317 316 313 314 320 318 312 323 333 327 324 322 318 319 316 318 324 327 328 329 328 329 330 327 325 327 328 327 326 324 324 326 327 325 325 324 318 314 313 312 311 311 310 309 309 308 308 307 307 307 307 307 306 306 306 306 306 306 305 305 305 304 304 304 304 304 304 304
318 317 318 318 317 318 320 318 316 316 316 315 315 316 319 319 318 317 317 316 315 315 320 320 314 316 322 327 331 324 318 321 318 319 325 327 328 329 328 328 329 326 325 328 330 329 326 323 324 326 327 325 325 322 316 313 312 311 310 310 309 308 307 307 307 307 307 307 307 307 307 307 307 307 307 306 306 305 305 304 304 303 303 303 303 304
317 319 319 320 318 317 318 317 316 316 316 316 316 317 319 317 317 319 317 317 319 317 320 324 318 316 323 332 331 324 320 322 320 320 324 328 328 328 329 328 328 327 326 328 329 328 326 324 326 327 326 326 324 319 314 313 312 311 310 309 308 308 307 307 307 307 307 307 307 307 307 307 308 308 308 307 307 306 305 305 304 304 303 303 303 303
317 319 319 319 319 317 317 317 317 316 316 316 315 317 318 317 319 321 319 321 321 318 321 323 317 316 327 335 328 324 324 322 321 321 323 328 329 328 329 328 328 329 329 329 328 326 325 325 327 328 327 326 321 315 313 312 311 310 309 308 308 308 307 308 308 307 307 307 307 308 308 309 309 309 308 308 308 307 306 305 304 304 304 303 303 303
316 318 318 318 318 318 318 318 317 315 315 315 318 319 320 322 322 324 329 326 319 323 328 324 317 315 324 332 327 322 323 322 321 322 324 328 328 328 329 328 329 329 329 330 329 328 327 327 328 327 325 322 317 313 313 312 310 310 309 308 308 308 308 308 308 307 307 308 308 309 309 310 309 309 309 309 308 307 306 305 304 304 303 303 303 302
318 319 319 317 318 318 318 319 317 315 314 316 321 321 320 323 324 328 334 326 318 327 330 322 318 317 322 330 326 321 321 321 320 321 324 328 329 328 328 329 329 328 329 329 329 329 329 328 328 325 321 318 314 313 312 311 310 309 308 308 308 308 308 308 308 308 308 309 310 310 310 310 310 311 310 310 309 308 306 305 304 303 303 303 303 302
321 321 318 317 318 317 317 319 317 316 317 316 320 324 323 325 326 328 331 326 323 328 325 318 318 321 326 329 324 321 322 321 320 318 321 326 328 328 328 328 329 328 328 328 328 329 329 328 326 323 319 316 314 312 312 311 310 309 308 308 308 309 308 308 308 308 309 310 310 310 311 311 311 311 311 310 310 309 307 306 305 303 303 302 302 302
325 326 321 318 320 319 317 320 320 320 319 315 317 324 324 324 325 325 326 323 324 327 325 319 318 324 330 327 323 323 321 319 320 318 318 323 328 329 328 328 328 328 328 328 328 328 328 327 325 323 321 318 314 312 312 311 310 309 308 309 309 309 309 308 308 309 310 311 310 311 311 311 311 311 311 311 310 309 308 307 306 304 303 302 302 302
323 328 326 319 319 319 318 321 322 319 319 318 316 317 321 324 324 323 324 324 324 327 327 321 319 327 331 328 326 323 319 319 320 319 319 319 324 328 329 328 328 327 327 327 327 327 327 326 325 325 323 320 314 312 312 311 309 309 309 310 310 310 309 309 309 310 311 311 311 311 311 311 311 311 311 310 310 309 308 307 306 305 303 302 302 303
322 325 324 318 318 318 318 320 319 319 322 321 318 318 320 322 324 323 326 328 326 325 329 325 323 328 329 330 330 323 320 322 319 319 320 317 321 327 328 328 327 327 326 326 327 326 326 326 325 325 324 321 316 313 312 311 310 310 310 310 310 310 310 310 310 311 311 311 311 311 311 311 311 312 311 311 310 309 308 306 305 304 304 303 303 305
324 326 323 319 319 318 318 319 319 320 322 322 320 320 318 318 323 325 326 329 325 322 327 325 323 327 326 329 333 327 326 327 321 320 320 318 321 326 327 327 326 326 326 326 326 325 325 325 325 325 324 322 319 316 313 312 311 311 311 311 311 310 310 310 311 312 311 311 311 311 311 311 312 312 311 311 310 309 307 305 304 305 305 305 306 308
323 325 322 319 320 319 317 318 320 319 320 324 324 321 321 323 326 326 325 328 327 323 326 324 322 327 327 330 334 329 325 325 323 323 321 317 320 324 326 327 326 326 326 325 326 325 325 325 325 324 323 323 322 320 317 314 312 312 311 311 311 311 311 311 311 311 311 312 312 312 312 313 313 312 311 312 311 310 307 304 304 306 307 307 309 309
323 325 324 319 319 320 318 317 321 319 318 323 323 322 326 325 324 326 324 324 325 323 326 327 324 326 330 332 334 329 327 325 322 325 327 321 319 322 325 325 325 326 325 325 326 325 325 325 324 324 323 323 323 323 321 317 313 312 311 311 311 312 312 311 312 311 312 312 312 312 313 314 313 312 312 313 312 312 308 304 305 307 308 309 310 309
324 325 326 323 318 319 321 320 321 322 320 321 323 323 324 322 321 324 322 321 324 323 326 328 326 329 333 330 327 327 329 328 323 326 329 323 318 321 325 324 325 325 325 325 325 325 326 325 324 324 323 323 323 323 323 320 316 312 311 311 311 312 312 312 312 312 312 313 313 313 314 314 314 313 313 313 313 312 308 304 305 308 309 310 310 308
324 324 325 324 321 321 323 320 320 323 322 322 325 324 322 323 323 322 321 322 323 323 326 326 326 331 329 321 320 321 322 323 324 326 326 320 318 321 323 324 325 325 325 325 325 325 325 325 324 323 323 323 323 323 323 322 319 315 312 311 311 311 312 312 313 313 314 314 313 314 314 314 314 314 314 314 313 311 307 305 307 309 310 310 309 308
325 324 324 324 324 323 322 319 320 323 323 323 325 323 321 323 323 321 322 323 322 322 324 322 323 328 325 319 319 319 317 319 321 322 321 319 318 319 321 323 324 325 325 325 325 325 325 324 324 323 323 323 323 323 323 323 322 317 313 311 311 311 312 313 315 315 315 315 314 314 314 315 315 315 314 314 313 310 306 306 308 310 310 310 309 309
323 324 324 324 325 322 318 318 320 321 321 322 323 322 321 322 323 323 322 322 322 322 322 321 323 326 322 319 320 320 319 319 318 318 319 318 318 318 319 319 321 322 324 324 324 324 324 324 323 323 324 323 323 323 323 323 323 320 316 313 312 312 313 314 315 316 315 315 315 315 315 315 315 315 314 314 312 309 306 307 309 310 309 309 309 309
320 323 322 322 323 320 317 319 320 320 321 323 323 323 323 324 324 324 322 321 321 322 323 323 324 325 323 320 320 321 320 319 318 318 319 318 318 318 318 318 319 319 321 323 323 323 323 323 323 324 324 324 324 323 323 323 323 321 319 316 314 314 314 315 315 316 316 315 315 315 315 315 315 315 314 313 311 308 306 307 309 309 309 309 309 309
318 321 321 320 320 319 319 321 322 321 321 321 322 323 324 323 322 322 321 320 320 322 323 323 324 327 327 323 321 321 321 319 319 318 319 319 319 319 318 318 318 318 320 321 322 323 323 323 323 323 324 324 324 323 323 323 323 322 321 318 316 315 316 315 315 316 316 315 315 316 315 316 315 315 314 312 310 307 306 308 309 309 309 309 309 308
320 322 322 320 320 320 320 321 321 321 319 318 320 322 322 321 320 320 320 320 321 322 322 322 325 327 325 323 323 323 322 321 319 318 318 318 318 318 318 318 318 318 318 319 321 322 322 323 323 323 323 324 324 324 323 323 323 322 321 320 318 317 317 317 316 316 316 316 316 316 316 316 315 314 314 312 309 307 307 308 309 309 309 309 308 308
322 324 323 321 321 320 319 319 319 319 319 318 319 320 320 320 320 319 320 320 321 322 321 322 323 323 321 322 323 322 321 322 321 319 318 317 317 318 318 318 318 318 318 318 319 320 321 322 323 323 323 324 323 323 323 322 322 322 321 321 320 319 319 318 318 318 316 316 316 316 316 316 315 314 313 311 308 307 308 309 309 309 309 308 307 307
325 324 322 322 322 321 321 320 318 318 318 318 319 320 319 320 320 320 320 320 320 320 322 322 320 320 321 321 322 322 321 322 321 319 318 317 317 318 318 317 318 318 318 318 318 318 319 320 321 322 324 324 323 323 322 322 322 322 321 321 321 320 318 317 318 318 317 315 316 316 316 315 315 314 312 309 307 308 308 309 309 309 308 307 307 306
326 324 322 322 322 322 321 320 319 318 319 320 320 320 318 318 320 320 319 319 318 319 320 321 319 319 320 320 320 321 320 320 320 319 318 318 318 318 318 318 318 318 318 318 318 318 318 318 320 321 323 324 323 323 322 322 321 322 321 321 321 319 318 316 317 318 317 316 316 316 315 315 315 313 311 308 308 308 309 309 309 308 307 307 306 306
320 324 325 321 320 320 320 320 320 319 319 320 318 316 317 317 318 319 319 319 318 318 318 318 318 319 319 319 319 319 318 318 319 318 318 318 318 318 318 318 317 318 318 318 318 317 317 318 319 320 321 323 323 322 321 321 321 321 321 321 321 319 318 317 317 317 316 316 316 316 315 315 314 312 309 308 309 309 309 309 308 307 307 306 306 306
315 320 322 320 319 319 318 320 321 319 318 318 316 315 316 317 317 318 318 317 317 317 317 317 318 319 319 318 318 317 317 317 318 319 318 319 318 318 318 317 316 317 318 318 318 318 318 318 319 320 320 321 322 322 322 321 321 320 319 320 320 319 318 318 317 317 316 316 316 316 315 315 313 310 309 309 310 309 308 308 307 307 306 306 306 305
318 319 320 319 319 318 318 319 319 317 317 317 316 316 316 316 317 317 317 316 317 317 317 316 318 319 318 318 317 317 317 317 317 318 318 318 317 317 317 317 316 316 317 317 318 318 318 318 319 320 320 320 320 320 321 320 320 319 319 319 320 319 318 318 318 317 317 316 316 315 315 315 312 310 309 309 310 309 307 307 307 306 306 306 305 305
319 319 319 318 318 319 319 318 317 317 320 319 317 316 315 315 317 317 317 317 317 317 317 317 317 318 317 317 317 316 317 317 317 317 318 318 317 317 317 317 317 316 316 317 318 318 318 318 318 319 319 320 320 319 319 319 319 319 319 319 320 319 318 317 317 317 317 316 316 315 315 313 311 309 309 309 309 308 307 307 306 306 306 305 305 304
318 319 318 316 318 321 320 317 318 320 320 317 315 315 315 316 318 318 318 318 317 317 317 317 317 318 317 317 317 317 317 316 316 316 316 317 317 317 317 317 317 317 316 317 317 318 318 318 318 318 319 319 319 319 319 319 320 320 319 319 320 319 317 317 317 316 316 316 315 315 313 311 309 309 309 310 309 308 307 307 306 306 306 305 305 304
319 320 319 316 317 320 319 317 318 319 316 314 315 315 315 317 318 317 316 316 316 317 317 316 317 317 316 316 315 315 316 315 314 314 315 315 316 316 316 316 317 317 316 316 317 317 317 317 317 317 317 318 319 319 319 319 319 319 319 319 319 319 318 317 317 316 316 315 315 313 311 309 309 309 309 309 309 308 307 306 306 306 305 305 305 302
321 321 319 318 318 318 318 316 316 316 315 315 316 316 315 316 317 316 316 317 316 316 316 316 315 314 314 315 315 315 316 315 314 314 314 315 315 315 316 316 316 316 316 316 316 316 316 317 317 317 316 317 318 319 318 318 318 319 319 319 319 318 317 317 317 316 315 315 313 311 310 309 309 309 309 309 308 307 307 306 306 306 305 305 303 300
319 319 317 317 317 316 317 317 316 315 315 316 317 316 314 315 316 315 316 317 315 313 314 316 316 314 314 315 315 315 315 316 317 316 315 315 315 315 315 316 316 316 315 315 316 316 316 317 317 317 317 317 317 317 318 318 317 318 318 317 318 318 317 316 316 315 314 313 312 310 309 309 309 309 309 308 307 307 307 306 306 305 303 302 300 298
315 316 316 316 316 315 316 316 315 315 315 315 316 315 313 313 314 314 315 317 315 312 312 315 315 314 314 314 315 315 315 317 320 318 315 314 314 315 315 315 315 315 315 315 315 316 316 316 316 317 317 317 316 316 317 317 317 317 316 316 317 316 316 315 314 314 314 312 311 310 309 309 309 308 308 308 307 307 306 306 305 303 301 300 299 299
315 316 318 318 317 317 316 314 315 315 314 314 315 314 311 312 313 313 314 317 315 311 311 313 314 313 314 314 314 314 315 318 319 317 314 313 314 314 315 315 315 315 315 314 314 315 316 316 316 316 316 317 317 317 316 317 317 316 315 315 315 315 314 314 314 314 313 312 310 310 309 309 309 308 308 308 307 307 306 305 304 302 301 300 300 300
319 317 318 318 317 316 315 315 316 315 313 314 315 313 311 312 313 314 315 316 314 311 311 312 313 313 313 313 314 314 315 317 318 315 313 313 314 314 314 314 314 314 314 314 314 315 315 315 315 315 315 316 316 317 317 316 316 315 315 315 315 315 314 314 314 313 312 311 311 310 310 309 309 308 308 307 307 306 305 304 304 302 301 301 301 301
318 317 316 316 316 316 315 316 315 314 313 314 314 312 311 312 315 315 316 315 312 311 311 312 312 313 312 312 313 314 314 314 314 313 313 313 313 313 314 314 314 314 314 314 314 314 314 314 314 314 314 315 316 316 317 316 316 316 316 315 315 315 315 314 314 312 312 312 311 310 310 309 309 308 308 306 306 305 305 304 303 301 301 301 301 300
316 316 315 315 315 315 315 315 314 313 313 313 312 311 311 313 316 316 314 313 312 312 312 312 312 312 312 312 313 313 313 312 312 313 313 313 313 313 313 313 313 313 313 314 314 314 314 314 314 314 314 314 315 315 315 315 316 316 316 315 315 315 315 314 313 313 312 312 311 310 310 309 308 308 307 306 305 305 304 303 302 302 301 301 300 299
313 313 315 315 313 313 314 314 314 315 315 312 312 313 312 313 315 314 312 312 312 312 312 312 312 312 313 313 313 312 312 312 311 312 312 312 313 313 313 313 313 313 313 313 314 314 314 314 314 314 314 314 314 314 314 314 315 315 315 316 315 315 314 313 313 312 312 311 311 310 310 309 309 308 306 306 305 304 303 302 302 303 302 301 300 299
313 312 314 315 313 312 314 314 313 315 315 312 311 312 312 313 314 312 312 312 312 312 313 312 312 312 313 313 312 313 312 312 312 312 312 312 312 312 313 313 313 313 313 313 313 313 314 314 314 314 314 314 314 314 315 315 314 315 315 315 315 315 313 313 312 312 312 311 311 310 310 309 309 307 306 306 305 303 302 302 303 303 302 301 301 300
314 313 313 313 313 313 314 314 312 312 312 311 311 312 312 312 312 312 312 312 312 312 312 311 311 312 312 312 312 313 313 313 313 313 313 312 312 312 312 313 313 313 313 313 314 314 313 314 314 314 314 314 314 314 314 314 314 315 315 315 315 315 313 313 312 312 311 311 310 310 310 309 308 307 306 305 304 302 302 303 303 303 302 301 301 301
312 312 311 312 314 314 312 312 311 310 311 311 311 311 311 311 312 312 312 311 311 311 311 311 312 312 312 312 313 313 313 313 313 313 313 312 312 312 312 312 312 313 313 313 313 314 314 314 314 313 313 314 314 314 314 314 313 314 315 315 315 315 314 313 313 312 311 311 310 310 310 309 308 307 306 305 303 302 303 303 303 302 302 302 302 301
312 311 312 313 314 313 314 313 311 310 311 311 311 311 310 310 311 311 311 311 311 311 311 312 311 312 312 312 312 312 312 313 313 313 312 312 312 311 312 312 312 312 312 313 313 313 313 313 313 314 314 313 313 314 314 314 313 313 314 315 315 315 314 314 313 312 311 310 310 309 310 309 308 307 306 304 302 303 303 303 303 302 302 302 302 300
311 310 313 315 314 313 314 313 310 309 311 311 311 311 311 310 311 311 311 311 310 310 311 311 311 312 312 311 311 312 312 312 313 312 312 311 311 311 311 312 312 312 312 312 313 313 313 313 313 313 313 313 313 313 313 313 313 313 313 314 315 315 314 314 313 312 311 310 310 310 310 309 307 306 306 304 303 303 304 303 303 303 302 302 301 300
310 311 313 314 314 313 313 312 310 311 312 311 310 311 311 310 311 311 310 311 310 311 311 311 311 311 312 312 312 312 312 312 312 312 312 311 310 310 310 311 312 312 312 312 312 313 313 313 313 313 313 313 313 313 313 313 313 313 313 314 314 314 314 314 314 313 311 310 310 310 310 309 307 306 306 304 304 304 304 303 303 303 302 302 301 299
311 313 312 311 313 315 315 312 310 312 313 312 310 311 311 310 311 311 311 311 311 311 311 311 311 311 311 312 312 311 312 312 311 311 311 311 310 310 310 311 311 311 312 312 312 313 312 312 313 313 313 313 312 313 313 313 313 313 313 313 314 314 314 314 314 313 311 310 311 310 309 308 307 307 305 304 304 304 304 303 303 303 302 302 300 299
311 313 312 312 314 314 313 311 310 310 311 311 310 310 310 311 311 311 311 311 311 311 311 311 310 311 311 311 310 310 311 311 310 310 311 312 311 310 310 310 310 311 311 312 312 312 312 312 313 313 313 312 312 312 312 313 313 313 313 313 313 313 313 314 314 312 311 310 310 310 309 308 308 306 305 304 304 304 303 303 304 303 302 301 300 298
Wind_Speed
5 2 2 4 6 7 8 8 9 9 7 6 6 3 5 7 6 6 7 9 7 9 9 9 10 10 9 11 7 14 22 24 26 26 26 29 30 31 33 34 34 33 30 27 25 24 22 21 19 18 17 16 16 14 13 11 10 9 9 9 10 10 10 10 11 11 11 11 10 8 7 7 8 9 8 7 6 5 6 7 8 9 9 10 12 13
2 3 6 8 9 10 10 9 8 7 7 7 7 5 6 6 5 7 6 6 2 6 6 7 9 9 9 9 6 15 17 16 25 27 26 29 31 33 35 34 34 33 31 29 28 27 25 23 22 21 19 18 17 16 14 12 11 11 11 11 11 11 10 10 11 11 11 11 10 9 8 8 9 9 8 9 10 10 10 9 9 10 10 10 11 12
1 4 10 12 10 9 8 8 7 7 8 8 6 3 4 6 4 6 5 5 4 1 3 4 7 8 9 8 6 15 19 22 34 38 36 35 32 32 34 35 34 33 33 32 31 30 28 26 25 23 21 19 18 16 15 15 13 13 13 12 12 11 11 11 11 11 10 10 10 10 10 10 11 11 12 13 13 12 12 13 12 13 13 13 14 14
3 6 13 13 8 7 7 9 7 4 4 5 3 2 4 5 3 4 5 5 3 3 3 4 5 6 6 4 4 15 22 27 36 40 42 43 40 38 39 39 39 37 37 35 33 33 31 28 28 26 24 21 20 18 17 17 15 14 13 12 11 11 11 11 11 11 12 12 12 12 12 11 11 11 11 10 10 9 9 11 11 12 13 12 13 14
7 10 12 9 7 8 9 8 3 2 2 4 4 3 4 5 4 4 5 5 3 4 3 4 2 5 5 4 5 9 13 17 24 28 32 37 39 39 38 39 41 41 39 38 36 35 33 32 31 28 26 24 23 21 19 17 15 13 13 12 11 11 12 11 11 11 11 11 11 11 10 9 8 7 6 6 6 6 7 8 9 10 11 11 12 12
8 9 6 3 4 5 7 5 3 3 2 4 4 4 4 3 4 4 5 5 5 6 5 3 1 5 4 4 6 4 5 7 14 18 23 28 29 31 34 35 38 40 39 39 39 38 36 34 32 30 29 27 25 23 21 18 15 14 13 13 13 12 13 12 12 11 10 10 9 8 8 7 6 5 4 4 4 4 5 6 7 8 9 10 11 11
4 6 6 3 3 2 0 2 2 2 2 3 4 2 1 2 2 5 6 5 2 4 5 1 2 5 5 4 7 4 5 7 8 10 16 24 26 29 34 36 37 39 39 39 39 39 37 34 33 32 31 29 27 25 22 19 17 16 15 14 13 13 13 13 12 11 10 9 9 8 6 5 4 3 2 1 2 2 3 4 5 6 7 8 9 10
4 8 9 6 5 4 4 2 2 2 5 3 5 2 4 4 4 3 5 4 1 3 4 5 2 1 3 5 7 3 3 5 6 9 13 22 28 31 33 36 39 42 42 41 40 40 38 35 34 34 32 30 28 26 23 21 19 17 16 14 14 14 14 14 13 12 11 9 9 7 6 4 3 1 0 1 1 2 3 3 4 4 5 6 7 9
2 6 8 7 5 4 3 3 4 1 2 5 4 4 3 2 2 2 4 3 1 2 4 6 3 2 3 6 5 3 2 4 4 7 12 20 28 31 32 36 40 42 43 43 43 41 38 36 35 33 32 31 29 28 24 22 20 18 17 15 15 16 15 14 13 12 11 10 8 7 5 4 3 2 1 2 2 3 3 4 5 5 6 6 7 8
1 5 7 4 3 4 3 5 5 1 2 5 1 3 2 2 2 2 4 2 2 3 3 6 2 2 3 6 5 4 4 5 5 4 9 19 29 32 34 37 37 37 39 41 41 40 37 35 35 33 32 32 30 28 25 22 21 19 18 17 17 17 16 15 14 12 11 10 9 7 6 4 3 2 1 2 3 4 4 4 5 6 7 7 8 8
7 11 7 2 2 4 3 4 5 1 3 2 4 4 3 3 4 2 2 3 2 3 5 6 2 3 1 5 2 2 1 4 5 3 5 15 26 31 34 35 36 36 38 39 37 37 36 34 33 34 33 32 30 27 25 24 22 21 20 19 19 18 17 16 14 13 12 11 10 8 6 4 3 1 1 2 3 5 5 5 6 7 7 8 9 9
9 10 7 6 7 6 6 6 7 6 3 4 4 4 4 4 4 4 5 3 1 4 6 5 4 3 2 4 4 2 3 4 4 2 4 11 18 26 30 32 35 37 37 36 34 35 36 34 34 35 34 32 30 28 27 25 24 23 22 22 21 20 18 17 16 15 14 12 10 8 6 4 2 0 1 2 4 5 6 6 7 8 8 9 10 10
7 4 6 8 9 13 9 6 7 8 6 5 3 4 4 3 3 3 4 2 2 5 5 3 6 2 4 4 6 4 5 5 5 5 3 13 20 24 29 31 33 33 33 33 33 35 36 36 36 35 34 33 31 30 28 27 25 25 24 24 23 21 19 18 17 17 15 12 10 8 6 3 1 1 3 4 5 6 6 7 8 8 9 10 10 10
5 6 7 6 7 13 11 4 4 6 6 7 4 2 1 0 2 2 2 2 3 4 5 4 5 2 3 3 5 2 6 7 6 12 8 10 24 30 31 31 31 31 32 33 34 36 38 38 37 35 34 33 32 30 29 28 27 26 26 25 24 21 20 19 18 17 14 12 10 8 5 2 0 2 4 5 6 7 8 9 9 10 10 11 11 10
2 5 5 4 5 9 8 3 2 5 5 6 3 1 0 2 2 3 3 2 4 4 4 5 2 1 2 3 5 4 3 8 12 17 20 10 13 29 31 28 29 30 32 34 36 38 39 39 37 35 33 33 32 31 30 29 28 28 27 26 24 22 21 20 19 17 15 12 10 7 4 2 1 3 4 6 8 10 11 11 12 12 12 12 11 9
2 4 4 6 7 5 7 6 5 4 3 4 4 2 2 1 3 1 2 4 2 2 3 2 2 3 3 4 4 1 1 6 13 18 25 26 6 21 27 27 31 32 33 35 37 39 39 39 38 35 33 32 31 32 31 30 29 29 28 27 24 23 22 21 19 17 15 12 10 7 5 2 2 4 6 8 11 12 13 14 13 13 13 12 10 8
3 4 6 9 8 6 11 12 7 6 2 2 3 3 4 4 3 2 3 1 2 1 4 2 2 3 3 5 6 5 2 3 9 13 18 22 8 14 22 25 31 32 33 36 38 39 39 38 38 36 33 30 30 31 31 31 30 29 28 27 25 24 23 22 20 17 15 13 11 8 5 4 3 5 6 9 12 14 15 15 14 13 12 9 7 7
1 5 5 6 5 8 18 17 5 9 4 1 2 4 6 4 2 3 1 2 3 2 4 2 3 4 3 3 5 6 6 5 4 9 10 13 5 11 18 23 29 31 33 36 37 39 38 38 38 36 34 31 28 28 29 31 30 29 28 27 26 26 25 23 20 17 15 13 10 6 4 5 4 4 7 10 13 15 17 17 14 12 10 8 8 9
1 3 5 4 5 10 16 12 4 7 7 5 2 2 3 2 2 2 0 1 2 2 3 4 3 2 3 3 4 4 5 6 5 6 6 8 3 10 15 19 25 29 32 33 35 37 38 37 36 36 36 32 28 25 25 29 30 29 29 27 26 26 24 22 20 18 16 13 9 5 5 6 4 4 8 10 13 16 18 17 13 11 10 9 11 12
1 1 5 4 6 8 8 5 4 5 2 4 3 4 3 0 2 1 1 1 2 2 2 3 3 2 3 3 4 4 3 4 3 5 5 7 5 9 17 20 24 28 31 33 35 37 38 36 34 34 34 32 29 27 25 27 30 30 29 28 27 26 23 22 20 18 16 12 7 5 6 6 4 5 8 11 13 17 18 16 13 11 11 11 14 15
2 2 4 5 6 5 3 3 3 5 3 1 3 4 2 1 1 1 2 2 1 1 2 2 3 3 2 3 4 6 6 4 3 3 3 3 7 9 15 20 25 30 33 34 36 37 37 35 33 32 32 32 31 30 27 27 29 31 30 30 28 27 25 23 21 18 16 11 7 6 6 6 5 6 9 11 14 17 17 15 12 11 11 14 15 13
1 1 2 4 5 3 4 5 3 1 2 2 2 1 1 0 2 1 2 2 2 2 2 0 3 5 3 3 3 6 7 8 10 7 1 2 9 10 10 14 21 28 32 34 35 37 36 34 32 32 33 33 33 32 31 30 30 31 32 30 29 28 27 25 22 19 15 11 9 8 8 8 8 10 11 12 15 16 16 13 10 10 12 14 12 10
1 2 1 3 3 6 8 4 4 6 6 5 3 1 1 2 3 2 2 2 2 0 2 1 2 4 3 3 4 6 7 10 14 14 10 10 11 10 9 8 11 18 25 28 30 32 32 31 30 31 33 34 35 34 34 33 32 32 32 30 30 30 28 25 23 19 14 11 11 11 10 11 12 12 13 14 15 15 14 12 10 10 12 12 10 11
1 2 2 3 4 6 5 2 5 5 6 4 2 1 3 2 2 3 2 1 1 1 2 1 3 4 3 3 6 10 14 16 17 17 15 16 18 18 13 6 2 7 15 22 25 26 28 29 29 31 34 35 36 36 37 36 34 33 32 30 30 30 28 25 23 19 14 12 13 13 13 13 14 14 14 15 15 15 13 10 8 9 10 11 12 13
2 1 2 3 4 5 3 3 5 5 3 3 4 2 1 2 1 1 2 2 1 3 3 2 3 3 3 4 6 10 14 15 17 20 19 17 20 23 24 22 14 4 6 15 23 25 26 29 30 30 32 35 36 38 38 37 35 33 32 31 29 28 28 26 23 19 16 15 15 15 15 15 15 15 15 15 15 15 12 7 6 9 11 12 13 14
1 1 1 2 3 5 4 3 5 4 3 3 4 4 1 3 3 1 1 1 2 3 3 2 4 4 4 4 5 5 5 7 13 20 22 21 21 22 24 28 23 11 2 4 13 21 24 27 29 30 32 34 37 38 38 37 36 33 32 32 28 27 29 28 24 20 17 17 17 16 15 15 15 16 16 16 16 14 9 6 8 12 13 13 13 15
2 1 1 3 3 3 4 6 5 2 3 6 6 7 4 4 5 3 2 2 2 1 3 4 4 6 6 5 4 4 5 6 8 12 17 21 24 24 25 26 23 13 6 3 3 10 16 21 25 27 30 33 34 36 34 33 33 32 32 33 30 27 29 28 25 21 19 18 18 16 16 16 17 17 16 16 16 12 7 7 12 13 13 13 14 16
3 2 2 4 5 6 7 8 8 4 4 8 9 9 6 1 5 4 2 4 1 1 4 3 1 4 6 6 6 7 7 6 6 10 15 19 21 22 21 22 20 14 8 4 2 2 6 13 19 23 27 31 34 36 35 32 31 30 29 31 31 29 27 25 25 24 21 18 17 16 16 17 17 15 15 16 14 9 7 10 13 13 13 14 16 18
4 1 3 4 4 6 6 8 9 5 5 7 6 7 8 5 1 4 5 4 3 2 5 4 6 7 6 7 7 7 7 8 11 13 13 14 16 14 12 12 12 10 8 6 2 1 3 5 11 19 24 27 29 33 33 32 30 29 27 29 32 31 28 26 26 25 22 20 18 17 17 17 16 14 15 16 11 8 10 14 14 14 15 16 17 18
3 1 4 3 4 5 5 7 7 5 5 4 5 7 7 7 3 3 4 3 4 5 6 7 10 8 4 6 8 10 12 12 13 11 8 9 11 9 6 6 8 9 10 8 4 2 3 4 2 11 19 22 23 24 24 25 26 27 27 29 33 31 27 26 26 25 24 23 20 19 18 17 14 14 15 13 9 9 13 14 14 15 15 16 17 19
4 2 4 2 3 5 5 6 6 5 4 2 6 8 8 7 6 4 4 3 2 3 4 6 7 4 4 8 9 12 16 15 12 10 10 10 9 7 6 7 9 11 12 11 9 5 3 5 4 3 10 16 18 18 19 20 22 25 27 29 32 30 27 27 26 24 25 24 22 20 18 15 14 15 15 12 10 12 14 14 15 15 16 17 19 20
2 2 3 4 4 5 4 5 9 8 3 4 6 10 9 7 5 4 2 3 3 3 4 4 3 2 5 8 9 11 14 14 12 13 15 14 11 10 9 10 9 9 10 11 9 6 4 4 3 1 4 8 11 15 18 19 20 25 27 28 31 30 28 27 26 25 25 24 21 19 17 15 15 16 13 11 13 14 14 14 16 17 18 19 20 21
1 0 1 2 2 5 5 7 9 6 5 4 4 5 3 2 3 1 1 2 3 2 2 3 3 3 5 6 7 8 10 11 13 14 15 15 14 12 12 12 10 9 9 9 7 4 4 4 2 2 5 6 9 13 16 18 20 24 26 28 31 31 26 25 27 27 25 23 20 18 16 15 14 13 11 12 15 16 16 16 17 18 19 20 20 21
1 2 2 1 1 3 7 8 5 5 5 1 3 4 4 3 4 2 2 4 5 2 1 2 2 4 5 5 5 6 7 10 13 13 12 13 14 14 15 14 12 12 11 9 6 4 4 4 2 2 4 6 8 9 11 15 19 21 24 29 32 29 23 25 29 28 25 22 20 17 15 13 12 10 12 16 18 18 18 18 18 19 20 21 21 21
0 1 1 1 2 2 5 6 5 4 1 2 5 6 6 5 4 3 4 5 5 4 3 2 3 5 7 9 10 10 12 13 13 12 12 12 12 14 15 14 13 13 13 10 7 6 5 4 3 4 5 7 8 5 7 12 17 22 26 29 30 27 24 27 30 28 25 23 19 15 12 11 11 12 15 18 19 18 18 18 19 21 22 21 21 19
3 1 1 1 1 1 3 4 2 0 1 1 4 6 5 4 4 4 3 3 4 4 3 4 6 7 10 14 15 16 16 15 11 9 10 12 13 14 15 15 14 14 12 10 9 9 8 6 5 6 7 6 6 5 7 11 17 24 26 26 27 26 25 29 31 29 25 21 16 13 12 11 11 14 17 19 19 18 18 19 21 22 22 21 19 15
5 3 1 1 1 1 1 2 2 0 2 3 4 5 3 3 3 2 1 3 4 4 5 5 6 8 11 15 17 19 18 13 8 5 7 12 14 14 14 15 15 14 13 12 11 10 9 9 7 6 5 5 6 7 10 11 14 19 22 22 24 25 27 30 30 27 22 17 14 12 12 12 12 15 18 20 20 19 19 20 21 22 20 16 13 12
3 2 2 1 1 1 2 2 2 3 3 2 5 7 8 7 5 4 1 2 5 7 8 6 6 9 11 13 17 18 14 7 3 6 11 14 14 13 13 13 14 13 12 13 13 10 7 9 9 8 6 6 7 8 10 11 12 16 20 23 24 25 27 28 26 22 19 16 14 13 12 12 13 16 18 20 20 19 19 20 20 19 14 10 8 11
5 3 4 3 2 2 3 1 2 1 1 3 6 10 15 16 6 3 1 2 4 7 12 9 8 10 12 14 15 13 9 3 2 9 15 16 14 13 13 14 15 14 12 13 14 11 8 8 9 9 9 8 7 7 7 7 10 15 20 24 25 24 24 24 22 20 17 15 14 14 13 13 15 17 19 20 20 19 19 19 18 15 11 8 9 12
5 4 3 3 2 1 1 0 2 2 2 5 6 11 19 17 4 5 3 4 6 13 18 13 12 14 15 16 14 7 3 4 7 14 21 21 18 16 13 13 15 14 14 15 14 12 9 9 9 10 10 9 9 9 8 9 12 15 18 21 21 21 22 23 21 17 15 15 15 15 14 14 16 18 19 20 20 19 19 17 14 12 10 9 10 13
3 3 2 3 1 2 0 1 2 2 3 5 7 13 17 12 5 4 1 6 11 18 20 16 15 16 15 15 12 7 8 12 16 20 22 21 20 17 13 12 14 14 15 16 14 12 12 11 11 11 10 10 10 11 12 14 16 16 18 20 21 21 23 22 20 18 17 17 17 16 16 16 17 19 19 19 19 18 16 14 12 10 9 10 11 13
2 2 2 2 1 2 1 1 2 2 3 4 9 14 11 4 2 2 6 10 15 18 18 17 17 18 18 17 15 14 16 20 20 20 19 18 18 16 14 14 14 14 15 15 14 13 13 13 13 13 12 11 11 12 13 15 17 18 19 21 22 22 22 22 21 20 19 19 19 19 18 18 18 19 19 18 17 16 14 13 11 9 9 10 10 12
1 0 3 2 0 1 1 2 2 2 3 3 7 8 4 2 2 7 11 14 16 17 17 18 18 19 18 17 16 18 21 21 19 19 20 20 18 17 15 15 14 13 14 14 14 13 12 13 14 14 14 13 13 15 15 14 16 17 19 22 23 23 23 22 21 21 21 21 22 21 20 19 18 18 18 17 16 13 11 11 10 9 10 10 10 11
1 1 1 2 1 1 1 1 1 4 6 6 4 4 5 6 8 11 12 14 16 17 18 18 19 19 17 16 16 19 21 20 19 18 19 20 20 19 18 16 15 14 13 13 13 12 11 12 13 14 14 13 13 14 15 15 16 17 20 22 22 24 25 24 22 23 25 25 24 22 21 20 18 16 16 16 15 12 10 10 10 10 11 10 10 12
3 3 2 2 2 2 3 6 8 9 12 12 8 8 11 12 11 13 14 16 17 17 17 18 19 19 18 17 17 19 21 20 19 18 18 19 20 19 18 18 17 16 14 12 10 10 10 11 12 13 13 13 13 14 16 17 18 20 21 22 22 26 29 27 24 26 28 28 26 23 20 18 17 16 16 16 14 12 11 11 11 11 11 11 11 13
4 4 3 1 3 3 5 10 11 11 13 14 9 8 11 13 12 12 13 14 16 16 16 17 17 18 18 16 16 18 21 21 19 18 19 21 23 21 19 18 17 16 15 13 11 11 12 13 14 15 17 17 17 18 18 19 20 21 22 22 22 26 31 30 27 27 30 32 29 23 18 18 17 16 16 15 13 12 11 12 12 12 12 11 11 13
2 4 2 1 2 2 3 6 6 8 12 12 8 8 12 13 12 11 11 13 14 14 13 14 16 17 18 16 16 19 20 20 19 19 20 22 22 21 19 18 17 16 15 14 14 14 15 15 16 17 17 18 18 19 19 20 20 21 22 23 23 25 29 31 29 29 32 33 28 20 16 17 17 16 16 15 12 11 11 13 14 13 12 12 12 13
1 3 2 2 2 2 5 10 11 13 15 10 6 10 15 14 12 10 10 12 13 12 12 14 16 17 16 15 16 17 18 18 18 19 20 21 20 20 19 18 16 16 16 15 15 14 13 14 15 16 17 19 19 19 20 21 22 21 21 23 23 23 25 28 30 30 34 34 27 20 18 18 17 16 15 14 12 12 13 14 15 13 12 12 12 13
2 2 2 2 1 3 6 10 10 10 10 8 9 14 16 12 10 11 12 13 12 12 13 14 16 17 17 15 14 14 15 17 18 19 20 20 21 21 19 17 16 16 16 16 15 14 12 13 14 16 18 19 19 18 19 19 20 21 20 21 23 23 24 27 30 31 34 34 27 19 18 18 16 15 15 15 14 14 15 16 15 13 12 12 13 13
3 3 2 1 1 3 5 8 8 4 6 11 16 17 15 10 9 13 15 13 12 13 15 15 15 16 14 12 13 14 15 17 19 20 20 19 20 20 18 16 17 17 17 17 16 15 15 16 16 16 16 17 16 16 16 17 17 18 18 18 19 20 21 25 29 33 36 33 25 19 18 17 15 15 16 16 15 15 16 16 15 13 13 14 13 13
5 5 4 3 3 6 10 15 15 8 9 15 20 17 12 10 12 14 15 14 14 14 13 13 14 13 11 11 13 14 15 17 20 21 20 18 18 19 18 17 16 16 17 17 17 17 17 17 17 17 17 17 16 16 17 16 16 17 17 16 15 16 18 22 27 34 35 28 21 19 18 16 15 16 18 17 16 16 16 16 15 15 15 15 14 13
Wind_Direction
188 192 267 226 228 230 236 220 215 234 231 248 267 260 258 258 267 261 259 265 222 186 201 185 192 213 206 222 212 150 151 148 150 159 163 166 169 169 170 171 171 169 164 162 165 169 171 175 179 185 189 189 186 187 187 185 185 189 188 182 181 182 179 177 179 182 184 186 187 189 194 195 188 187 193 199 204 210 215 215 220 222 223 226 224 221
159 200 246 230 226 226 236 236 226 243 253 264 263 258 269 262 260 255 261 303 276 181 212 192 190 221 215 225 211 145 147 159 160 164 171 171 172 173 172 173 174 170 165 165 169 172 174 177 180 186 193 194 193 193 193 195 197 200 200 197 196 198 195 191 191 194 196 199 204 209 213 209 206 211 223 235 243 246 247 247 241 230 225 230 232 238
338 238 247 237 230 234 251 258 249 250 253 257 249 234 271 264 274 283 283 329 344 202 253 215 196 234 231 222 201 161 162 176 174 170 172 173 173 175 175 172 172 171 168 170 174 174 177 179 180 185 193 197 199 198 198 201 204 205 206 206 205 207 207 205 204 207 212 215 216 218 224 228 230 238 247 253 256 256 256 256 254 246 241 241 242 247
281 251 250 245 239 241 258 266 256 256 260 241 210 185 262 266 293 300 294 322 324 270 260 204 207 262 267 255 222 189 179 179 180 175 171 173 174 177 177 172 172 172 171 173 178 177 177 181 183 186 191 197 200 202 204 204 204 205 208 210 210 211 213 213 212 216 223 226 229 230 235 240 239 240 246 250 251 250 250 251 253 255 255 253 251 251
238 251 256 250 242 241 250 260 215 134 325 265 221 213 246 281 287 262 284 313 339 312 280 153 187 294 282 260 253 216 196 181 179 175 172 175 177 175 174 173 174 173 172 176 180 180 180 183 186 186 188 195 201 205 207 205 203 204 207 211 212 214 216 215 215 219 225 228 231 230 227 225 220 221 229 233 237 240 240 242 244 249 254 254 252 252
238 269 292 278 249 237 234 237 188 165 315 307 267 234 226 262 295 316 337 359 23 333 282 150 141 288 283 254 255 235 218 199 175 170 175 179 177 173 172 174 177 175 175 180 182 182 182 185 187 187 188 193 199 204 206 203 202 202 207 212 212 215 217 213 212 211 213 216 214 213 208 201 196 196 204 217 235 247 247 245 240 239 243 246 246 247
266 319 11 2 311 25 109 240 231 180 78 318 278 249 180 110 42 358 15 46 50 288 281 351 182 262 316 289 253 223 193 210 187 162 170 174 174 175 175 176 178 177 178 183 184 183 183 186 188 189 189 191 195 199 200 199 200 201 205 210 210 212 211 204 201 199 198 200 199 196 194 189 187 187 185 216 256 270 272 261 244 237 235 234 236 238
292 340 7 356 340 22 18 329 278 105 95 265 257 93 63 62 58 7 43 72 220 256 315 354 96 203 308 271 263 265 194 229 208 163 161 174 178 180 179 178 180 180 181 184 185 184 185 188 191 191 189 190 192 193 195 196 197 199 203 207 208 207 203 197 194 191 187 190 189 182 179 173 163 154 113 0 341 329 309 296 282 267 253 241 234 231
296 4 345 334 345 354 332 289 289 33 92 257 236 115 96 102 115 109 82 76 0 21 332 322 30 92 274 277 308 351 64 328 266 185 170 177 180 180 181 182 183 184 184 185 186 186 188 190 193 194 191 190 191 190 192 193 194 199 203 205 206 203 199 193 188 185 180 179 178 170 165 162 145 117 50 11 353 343 324 312 302 292 283 271 261 252
335 342 309 308 351 334 297 289 308 10 246 265 208 108 107 84 74 88 95 93 22 17 279 283 348 87 269 286 330 18 40 353 309 230 186 181 179 181 184 185 185 184 185 188 188 188 188 191 194 195 192 191 190 189 189 191 194 199 203 204 204 200 195 190 185 182 177 172 172 168 165 159 141 113 45 0 349 344 333 321 305 294 290 286 279 273
323 335 336 352 308 293 299 325 343 315 256 300 44 40 8 16 23 29 66 81 30 311 255 264 305 101 277 284 303 37 300 273 297 297 199 186 183 184 184 185 186 184 185 189 188 187 187 191 194 195 193 191 190 188 188 191 196 200 202 202 200 196 192 188 183 180 179 175 173 174 173 167 152 131 39 355 349 345 337 327 316 305 296 289 283 277
336 351 350 318 321 351 350 346 350 329 345 60 56 37 5 339 5 13 2 35 64 267 258 285 342 83 167 268 273 274 269 275 312 336 195 189 186 187 185 184 186 185 185 188 186 185 186 189 193 194 193 192 190 189 188 191 196 199 200 200 198 195 191 188 183 181 182 178 175 177 178 175 166 161 343 347 345 340 338 334 326 318 309 300 292 283
330 316 315 317 355 25 11 339 348 344 6 27 23 56 43 338 358 2 337 344 235 249 260 337 17 18 207 240 256 288 340 318 326 26 143 189 185 186 189 186 184 184 184 185 184 184 188 190 192 193 194 194 192 190 189 192 196 198 199 199 197 193 189 187 184 183 183 179 176 177 176 175 184 328 336 344 347 344 338 335 330 325 320 312 304 297
327 304 335 350 1 18 22 22 3 335 330 338 345 58 62 81 35 303 276 308 276 258 279 334 17 316 269 264 227 225 1 336 351 30 41 197 193 189 191 186 181 181 181 183 185 188 191 192 192 194 195 197 195 192 191 193 196 198 198 197 195 191 189 188 186 185 185 182 178 178 176 168 327 331 343 349 351 348 342 337 333 329 325 319 314 307
328 299 339 23 334 356 24 47 300 296 305 319 321 84 206 160 163 252 214 205 262 266 295 319 328 209 215 261 217 171 32 13 15 23 28 9 214 194 187 181 178 179 180 184 188 192 193 193 194 195 197 198 197 194 195 196 197 198 198 196 193 191 190 189 190 189 187 185 184 183 176 150 20 344 349 355 355 353 348 342 336 330 326 320 315 312
335 269 284 338 327 359 22 349 336 342 316 308 325 29 16 213 180 244 216 181 192 274 300 297 258 210 202 262 276 189 141 54 36 28 27 15 342 186 179 177 178 180 181 186 190 192 193 194 196 197 198 201 200 198 198 198 199 200 199 197 194 192 192 192 193 192 190 190 192 191 183 177 349 346 352 358 357 354 349 343 336 330 325 321 317 319
353 285 287 326 331 41 15 343 6 39 321 286 353 0 315 278 151 96 295 294 72 295 273 252 252 296 317 310 326 356 0 61 62 56 38 20 20 174 176 179 181 182 183 187 192 193 193 195 198 201 201 201 202 203 203 202 203 203 202 199 195 193 194 196 196 195 195 199 202 202 204 226 287 330 352 0 356 350 344 337 333 330 329 328 324 320
311 291 293 334 336 1 353 341 38 74 59 49 347 316 311 316 87 86 305 348 17 274 272 271 250 292 316 302 319 2 16 6 55 90 65 28 34 178 182 183 185 186 186 190 194 195 196 199 202 204 205 204 204 207 209 208 207 206 206 203 199 197 198 199 199 199 202 209 212 219 242 251 264 321 350 353 350 345 337 331 331 330 327 326 321 317
117 302 297 8 5 337 345 349 40 61 70 116 143 346 7 4 358 5 27 304 298 265 293 297 281 277 228 241 305 345 13 352 11 79 73 20 31 174 180 184 187 188 188 191 194 196 199 202 206 207 208 207 207 210 214 213 210 209 209 207 204 204 203 202 203 204 209 215 217 233 264 259 257 318 338 339 339 336 331 326 325 322 320 322 321 319
63 0 281 341 8 335 345 17 354 336 33 125 104 41 39 153 240 283 203 200 246 251 285 300 315 300 240 264 315 331 332 309 346 63 68 16 34 157 178 186 186 188 191 192 195 199 202 206 210 212 213 212 212 213 215 214 213 213 212 210 209 209 208 208 209 211 214 217 219 233 253 256 261 305 320 324 326 326 325 321 316 315 318 322 322 319
29 61 271 308 358 353 351 10 325 307 314 31 52 42 11 326 345 321 255 200 152 188 248 302 298 273 279 331 347 8 7 334 351 52 113 62 68 133 176 188 188 188 192 196 199 202 205 208 212 216 218 219 216 214 214 215 216 216 215 213 212 212 212 212 213 217 219 217 218 224 240 256 266 284 297 307 314 319 320 314 311 314 316 319 321 319
47 101 267 307 351 344 296 307 317 32 83 90 87 55 290 143 71 16 282 297 55 123 168 270 281 268 283 329 357 24 18 356 4 14 319 90 83 107 150 183 193 194 196 201 204 204 206 210 215 218 218 219 218 216 216 217 218 218 217 216 217 216 215 215 216 219 221 217 215 219 230 246 257 267 279 293 307 316 316 309 307 313 315 316 315 310
131 108 22 295 290 279 284 321 69 92 94 105 117 129 166 129 112 154 237 309 356 117 168 177 259 259 270 318 352 12 8 355 3 12 6 5 31 63 103 149 188 199 201 205 207 209 211 214 218 220 218 219 221 221 220 219 219 219 218 219 221 220 218 217 219 221 220 217 219 222 227 238 249 258 271 289 306 315 312 305 308 313 312 308 303 303
6 66 7 294 278 284 292 35 68 68 76 69 14 153 169 174 153 168 173 137 225 249 161 174 260 259 271 325 0 2 357 350 351 1 6 0 2 8 14 30 98 186 202 207 209 212 215 216 218 219 219 220 221 223 222 221 220 220 219 221 223 223 221 220 220 220 216 216 223 226 228 238 246 253 269 291 308 314 311 307 310 308 302 296 294 298
352 20 8 341 329 327 348 27 354 346 33 14 306 279 186 150 102 58 64 96 233 230 173 185 251 251 280 334 10 2 352 344 337 340 348 350 350 350 347 347 352 0 198 205 210 212 214 216 218 219 221 221 221 223 223 222 221 221 221 222 222 223 224 222 220 217 212 215 223 226 230 239 246 255 273 293 308 311 309 307 301 295 290 286 286 291
36 174 85 43 344 328 340 331 310 313 339 328 290 285 273 160 152 117 73 153 241 215 175 206 252 264 300 346 20 9 343 332 325 327 333 334 332 335 338 341 345 350 356 203 210 214 217 217 218 221 223 222 221 222 221 222 222 222 222 222 221 223 223 220 217 214 211 216 222 227 234 241 248 259 276 295 307 307 303 295 291 287 281 277 282 293
81 94 141 149 182 250 263 263 264 266 308 299 289 292 284 189 168 135 116 201 219 225 220 226 258 295 312 340 359 333 313 311 310 318 327 324 320 324 330 334 340 347 1 39 174 211 224 223 222 224 224 219 216 214 215 217 219 220 221 221 220 221 219 218 218 215 214 219 224 230 237 242 251 263 280 298 303 301 296 288 285 279 274 279 291 301
80 2 272 180 192 221 226 248 263 256 260 273 282 294 300 238 153 148 198 221 168 345 258 235 7 323 303 314 319 309 306 308 308 311 315 313 312 318 325 325 325 329 336 356 90 178 236 230 227 227 222 216 214 215 218 220 219 219 222 223 223 221 215 216 220 218 219 223 225 230 237 243 254 269 288 299 299 294 289 283 277 271 275 287 298 304
114 305 253 192 227 243 230 254 270 263 251 265 291 313 327 346 157 198 237 223 162 225 263 297 331 312 306 322 316 308 309 307 307 301 294 302 310 310 315 319 321 333 344 339 323 302 303 262 234 227 222 219 218 219 220 220 217 218 225 229 230 224 215 213 216 218 222 226 225 230 238 246 259 278 291 296 294 283 279 276 270 271 280 290 299 306
80 273 253 242 279 272 261 269 271 272 278 304 354 358 360 2 332 271 276 242 205 236 265 300 306 299 326 337 318 323 329 324 321 315 302 315 325 319 317 339 1 16 14 6 359 294 306 348 290 230 226 223 220 218 217 215 217 224 230 231 228 223 215 211 212 214 219 224 226 232 240 248 264 284 291 290 282 271 271 268 265 272 283 292 300 306
41 288 283 342 333 295 278 277 283 293 296 358 26 16 15 4 348 353 343 307 283 289 303 311 300 296 344 335 328 339 345 346 349 349 346 347 352 359 12 25 28 23 17 13 14 16 11 23 26 246 232 229 230 230 227 227 232 235 234 228 224 219 213 211 212 211 216 222 226 231 239 252 272 286 288 281 271 266 263 260 264 276 286 293 300 303
44 302 331 38 358 293 277 297 308 316 348 67 37 21 22 5 352 19 355 303 312 325 334 345 341 329 336 334 339 347 349 351 349 345 350 357 5 11 18 25 24 15 8 1 355 4 24 24 21 319 254 243 245 245 239 238 237 233 229 224 218 213 211 214 216 214 215 220 226 232 242 257 274 284 283 271 264 262 259 261 270 280 287 294 299 303
156 337 0 57 337 287 302 318 315 336 32 45 7 2 10 338 337 357 262 312 338 328 351 21 9 338 331 332 340 347 348 348 340 336 342 349 354 1 9 13 10 3 355 343 330 346 19 17 358 281 265 254 253 255 250 244 237 230 225 219 213 208 209 215 217 216 217 220 226 234 244 259 276 282 268 254 256 260 263 268 276 284 290 296 301 305
203 147 164 133 153 277 308 324 343 34 48 7 282 281 275 302 329 341 14 22 21 20 54 47 332 320 325 325 329 328 327 335 336 332 337 346 352 358 3 5 5 2 356 345 336 353 14 22 17 319 294 287 278 264 250 245 241 230 219 212 209 209 213 216 216 217 220 223 227 235 247 265 279 271 251 250 257 262 266 272 281 288 293 298 303 309
104 99 127 128 158 260 319 353 22 39 70 214 252 266 274 294 311 346 25 25 13 6 13 353 318 308 312 312 314 317 320 333 344 343 342 349 355 354 352 353 356 354 350 346 344 343 343 346 335 319 317 314 303 274 231 233 230 217 208 208 212 216 218 217 217 220 222 223 228 237 252 270 275 260 253 257 261 264 267 275 284 290 295 299 303 309
141 133 99 120 232 308 4 15 18 347 205 253 287 283 283 302 327 359 12 342 335 342 334 318 307 302 305 306 312 320 321 322 334 346 345 344 345 343 336 333 336 340 339 342 347 343 335 325 315 315 316 305 287 251 220 220 220 214 212 212 216 220 219 217 218 220 219 223 232 245 259 271 268 260 260 262 263 265 270 279 287 292 297 299 299 306
131 134 82 29 321 45 8 297 277 24 13 343 319 307 294 278 291 322 305 279 298 310 308 305 299 300 306 307 316 328 328 320 316 324 334 335 335 334 329 323 326 331 333 336 339 339 334 327 323 324 307 275 258 243 224 218 217 212 209 212 219 222 218 214 214 214 216 226 241 253 262 266 260 259 262 262 263 266 273 283 290 296 298 294 295 314
86 99 102 95 0 61 69 322 332 21 23 312 292 297 305 300 269 214 202 280 272 291 312 312 289 295 302 304 315 330 338 339 307 302 325 334 332 329 329 325 325 329 330 332 331 325 320 323 328 326 295 263 257 254 243 235 226 214 210 216 219 214 207 205 207 213 222 235 247 254 260 261 257 259 262 261 263 269 277 284 290 295 295 292 308 328
35 43 91 87 19 27 77 26 315 294 239 275 279 294 315 321 302 169 60 310 250 297 324 320 292 295 300 302 312 328 343 359 288 311 331 339 333 327 325 323 326 327 322 322 322 313 299 303 315 315 303 286 267 260 261 244 222 211 207 205 202 198 201 208 216 224 231 241 251 256 257 256 257 259 260 261 266 272 278 283 288 293 297 304 319 324
24 15 42 49 3 334 105 178 251 209 242 271 274 298 316 325 357 97 19 297 281 319 329 320 301 303 307 310 316 322 305 274 285 311 326 329 325 323 319 314 319 322 319 319 319 311 297 294 300 302 295 281 260 253 252 230 210 205 204 204 207 215 224 228 231 236 241 248 254 255 252 250 254 257 259 264 270 274 277 282 286 291 298 307 313 316
0 343 29 56 3 318 15 245 272 270 249 257 287 313 321 332 35 78 298 273 298 318 325 320 309 309 313 315 315 307 301 308 311 316 324 327 325 323 321 316 317 318 315 315 314 308 299 296 304 304 287 266 253 251 248 240 237 237 235 233 236 239 238 239 244 248 249 251 252 248 245 247 251 257 264 268 270 273 277 279 279 283 296 305 308 312
348 332 357 37 0 321 263 237 302 294 232 254 311 325 332 1 68 257 275 291 304 312 319 320 313 312 317 318 315 315 319 324 326 324 326 330 329 328 329 328 326 321 314 310 310 307 299 294 297 298 289 275 264 262 259 253 255 259 253 246 246 246 246 247 249 248 247 248 246 242 241 244 250 260 267 267 267 271 274 271 265 273 293 301 305 312
170 10 319 301 270 351 342 354 354 286 248 305 339 343 2 94 232 272 287 299 307 311 316 319 318 319 320 318 320 326 326 324 324 322 322 322 322 322 323 324 323 320 317 314 311 306 299 294 291 290 290 283 272 269 268 263 262 262 256 251 249 248 246 242 241 243 243 240 238 236 237 242 252 263 264 261 264 270 265 254 251 264 286 296 305 315
170 133 291 266 230 30 13 12 198 226 265 308 324 300 297 289 282 290 291 291 304 314 314 315 322 326 322 314 317 327 329 327 327 327 326 325 322 319 316 314 313 312 310 311 311 306 299 294 290 289 290 283 269 261 259 261 263 261 255 252 249 244 237 231 233 238 238 233 230 231 235 244 255 262 258 256 263 263 248 240 244 258 279 291 302 313
216 193 191 218 232 218 212 240 259 271 293 310 307 293 305 306 295 294 287 283 299 314 315 315 323 331 329 320 316 324 330 331 331 331 331 331 330 325 317 311 310 308 306 308 314 310 299 288 285 287 289 285 275 265 261 262 264 262 258 254 250 243 236 230 231 235 234 230 226 226 236 249 256 256 251 253 261 257 240 236 243 255 275 288 295 306
223 190 160 194 265 280 259 256 268 287 308 322 330 326 327 324 310 302 299 298 309 321 324 324 326 331 334 326 317 323 331 331 328 326 326 327 327 325 320 313 310 307 302 299 301 305 303 297 291 288 286 284 281 277 275 272 269 268 265 256 249 245 241 237 236 234 233 230 225 225 239 249 249 249 250 251 257 251 238 241 251 259 272 282 287 300
228 178 171 258 287 331 300 267 276 310 319 326 335 332 333 332 322 314 318 323 327 330 332 332 329 331 337 338 330 327 328 328 326 324 325 327 327 327 326 322 317 313 304 293 289 295 301 302 298 294 290 289 288 286 282 276 271 270 267 258 252 250 247 243 239 234 231 228 224 228 244 245 243 249 252 250 250 244 240 247 253 257 265 273 281 296
227 173 198 242 221 221 267 274 285 304 309 304 293 309 324 333 330 325 328 331 332 334 334 333 330 329 335 342 340 331 327 332 335 331 330 333 335 333 332 329 323 316 308 298 290 290 296 301 300 298 298 299 299 295 288 279 270 265 262 257 254 252 249 245 240 235 232 230 231 240 245 240 243 251 249 247 245 242 245 250 250 252 262 269 278 293
235 190 191 197 242 274 281 283 292 310 310 291 289 311 325 336 340 339 336 330 328 333 334 333 334 333 331 335 345 344 338 341 345 341 336 339 340 336 331 330 326 318 310 304 295 288 292 299 298 296 296 297 299 299 294 284 274 266 260 254 250 249 248 244 239 234 230 230 234 238 235 235 246 250 244 243 244 242 248 251 248 251 261 266 274 290
212 204 190 119 342 294 270 281 294 304 288 288 303 320 331 341 343 339 337 333 331 332 332 333 339 341 337 340 353 356 347 345 349 346 341 342 345 340 332 328 328 323 318 313 303 293 294 297 295 292 289 290 295 298 296 291 281 270 261 251 245 245 246 244 239 232 228 228 229 227 227 237 250 247 240 240 239 240 246 249 246 250 257 262 271 283
226 228 214 182 222 250 268 289 295 274 257 286 304 316 328 336 335 331 331 332 331 331 334 340 345 348 350 353 355 353 348 347 348 346 342 341 345 345 341 335 330 326 324 321 312 307 308 307 301 296 291 291 294 293 290 288 283 273 264 255 250 246 243 242 236 227 222 222 221 222 233 246 248 241 239 237 235 240 246 247 247 250 253 258 268 276